Location: B
(0.0000°N, 0.0000°E)
Time: 23:16:13
(UTC+01:00)

Daily predictions for brighter satellites

Satellite Brightness Start Highest point End
(mag) Time Altitude Azimuth Time Altitude Azimuth Time Altitude Azimuth
Cosmos 2297 3.9 19:07:02 10° SSW 19:12:45 82° WNW 19:18:23 10° NNE
Cosmos 1269 Rocket 4.0 19:07:42 10° N 19:12:59 80° ENE 19:18:17 10° SSE
ARIANE 5 DEB (SYLDA 5A) 3.1 19:12:28 10° W 19:15:22 78° S 19:27:06 10° E
Meteor 1-19 Rocket 4.5 19:10:59 10° S 19:16:26 51° E 19:21:57 10° NNE
Cosmos 2218 Rocket 4.0 19:11:20 10° N 19:17:31 72° E 19:23:38 10° S
Cosmos 2366 rocket 4.1 19:11:20 10° N 19:17:31 60° E 19:23:39 10° SSE
Meteor 1-28 Rocket 4.1 19:17:00 10° N 19:20:42 53° W 19:24:22 10° SSW
Timation 1 Rocket 4.5 19:15:48 10° SSW 19:21:46 81° WNW 19:27:42 10° NNE
Okean 1-7 Rocket 3.7 19:17:51 10° S 19:22:21 60° E 19:26:50 10° NNE
Cosmos 1025 Rocket 3.6 19:23:18 10° SSE 19:27:17 36° E 19:31:16 10° NNE
Haruka 2.3 19:23:49 10° WSW 19:27:36 82° NNW 19:31:03 12° NE
Meteor 1-13 Rocket 4.3 19:24:15 10° S 19:29:47 85° W 19:35:22 10° N
ARIANE 5 R/B 3.9 19:29:32 10° W 19:33:18 87° S 19:57:34 10° E
OAO 3 Rocket 3.7 19:30:26 10° NNW 19:34:43 36° NE 19:38:58 10° ESE
ARIANE 5 DEB (SYLDA) 3.1 19:32:11 10° WNW 19:34:59 61° N 19:41:46 12° E
Ariane H10+ 1.2 19:34:32 10° WSW 19:35:57 36° S 19:36:50 17° ESE
Cosmos 921 Rocket 3.5 19:33:30 10° SSW 19:37:36 58° W 19:41:42 10° N
Cosmos 1975 2.8 19:39:35 10° N 19:43:34 61° E 19:47:31 10° SSE
Cosmos 1892 Rocket 4.1 19:45:33 10° SSE 19:49:32 36° E 19:51:59 20° NE
Meteor 1-23 Rocket 4.3 19:44:19 10° S 19:50:07 66° E 19:55:49 10° NNE
COSMOS 2406 3.2 19:45:43 10° NNW 19:51:27 89° WSW 19:57:14 10° SSE
Cosmos 1809 Rocket 4.4 19:45:39 10° N 19:51:39 60° E 19:57:38 10° SSE
OAO 2 Rocket 4.0 19:48:15 10° SSW 19:53:06 41° SE 19:55:47 23° E
Cosmos 1455 Rocket 4.2 19:51:33 10° NNW 19:55:48 47° W 20:00:06 10° SSW
Intercosmos 25 3.8 19:53:33 17° NNE 19:56:02 43° E 20:00:51 10° SSE
Cosmos 2056 Rocket 3.5 19:50:50 10° S 19:56:16 85° ESE 20:01:40 10° NNE
ARIANE 42L R/B 2.7 19:55:34 10° W 19:58:32 90° SW 20:02:26 22° E
Meteor 2-8 Rocket 4.3 19:53:35 10° S 19:59:37 74° E 20:05:39 10° N
SL-27 R/B 2.3 19:56:19 10° N 19:59:55 80° ENE 20:03:27 10° SSE
GPS 2-04 Rocket1 2.9 19:57:51 10° NNW 20:01:23 40° NE 20:01:44 38° NE
Spot 2 Rocket 4.1 20:01:41 10° SE 20:06:12 32° ENE 20:06:49 31° ENE
Cosmos 1340 2.9 20:03:23 10° SSE 20:07:01 43° E 20:07:17 42° E
Intelsat 5-3 Rocket 3.0 20:04:35 10° NW 20:08:12 29° N 20:08:12 29° N
Cosmos 1727 Rocket 4.1 20:04:00 10° SSE 20:10:07 51° E 20:13:47 24° NNE
Centaur AC-72 3.6 20:04:27 10° W 20:12:40 42° NNW 20:15:33 25° NNE
Meteor 2-4 Rocket 4.4 20:08:17 10° SSW 20:13:45 54° W 20:19:03 10° N
Okean 2 3.4 20:12:11 10° S 20:16:18 76° W 20:18:42 24° N
XTE 3.9 20:16:05 10° W 20:18:33 42° WNW 20:18:33 42° WNW
FREGAT/IRIS 3.4 20:17:24 10° S 20:20:27 54° W 20:21:43 30° NW
METEOR-M 4.1 20:16:58 10° S 20:22:19 85° WSW 20:27:39 10° NNW
Delta 142 4.1 20:23:06 10° WSW 20:27:28 55° NNW 20:28:28 46° NNE
Longmarch 3A Rocket 3.9 20:27:20 10° SW 20:31:13 17° S 20:31:58 16° SSE
Ariane H10-3 3.7 20:29:23 10° WNW 20:32:36 42° NNE 20:32:54 42° NNE
Cosmos 1743 3.0 20:36:39 63° WSW 20:36:39 63° WSW 20:40:13 10° S
BLOCK DM-SL R/B 3.3 20:33:38 10° W 20:40:21 85° S 20:41:18 60° E
Cosmos 2369 Rocket 2.0 20:35:03 10° S 20:40:38 72° ESE 20:40:55 70° E
SEDSat Delta rocket 3.4 20:39:08 10° WNW 20:42:23 54° WNW 20:42:23 54° WNW
Cosmos 1452 Rocket 3.5 20:40:51 10° SSW 20:46:05 78° WNW 20:46:34 71° NNW
Atlas Centaur 2 4.1 20:43:12 10° WSW 20:46:57 22° SSW 20:51:24 10° SSE
ALOS 2.8 20:44:11 10° S 20:47:39 50° S 20:47:39 50° S
Resurs 01 Rocket 2.0 20:45:40 10° S 20:49:47 60° WSW 20:49:47 60° WSW
ATLAS 2AS CENTAUR R/B 2.7 20:42:43 10° NNW 20:54:04 26° SE 20:56:41 10° SSE
GEOS 3 Rocket 3.6 20:49:44 10° SSE 20:54:54 74° WSW 21:00:00 10° NNW
CZ-3C R/B 4.2 21:05:28 10° SW 21:09:10 12° SSW 21:11:33 10° S
Maqsat-B 4.2 21:01:39 10° W 21:13:31 45° SSW 21:13:57 44° S
ARIANE 5 R/B 3.9 21:18:34 10° W 21:27:04 41° W 21:27:04 41° W
Cosmos 1943 Rocket 4.1 21:35:14 10° SSW 21:37:24 24° SSW 21:37:24 24° SSW
H-2A ROCKET BODY 3.5 21:18:26 10° WSW 21:40:09 63° WNW 21:40:09 63° WNW
Milstar 3 4.1 21:53:25 10° SW 22:02:46 75° SSE 22:02:46 75° SSE
